| time (UTC) | temp F | wind direction | speed knots | gust knots | rain 1hr in | rain 24hr in | rain mn in | humidity % | barometer mb |
| 20260905064211 | 70 | 282 | 17.4 | 26.1 | 0.02 | 0.02 | 0.02 | 60 | 1008.9 |
| 20260905063711 | 71 | 287 | 13.9 | 28.7 | 0.02 | 0.02 | 0.02 | 58 | 1008.7 |
| 20260905063211 | 73 | 278 | 26.1 | 33.9 | 0.01 | 0.01 | 0.01 | 53 | 1009.5 |
| 20260905062712 | 75 | 270 | 31.3 | 42.6 | 0.00 | 0.00 | 0.00 | 46 | 1009.3 |
| 20260905061711 | 79 | 255 | 33.9 | 47.8 | 0.00 | 0.00 | 0.00 | 36 | 1008.7 |
| 20260905061211 | 80 | 249 | 39.1 | 53.0 | 0.00 | 0.00 | 0.00 | 33 | 1008.4 |
| 20260905060711 | 82 | 237 | 32.2 | 41.7 | 0.00 | 0.00 | 0.00 | 32 | 1007.9 |
| 20260905055711 | 84 | 276 | 19.1 | 32.2 | 0.00 | 0.00 | 0.00 | 27 | 1007.2 |
| 20260905055211 | 84 | 286 | 18.2 | 32.2 | 0.00 | 0.00 | 0.00 | 27 | 1007.1 |
| 20260905054711 | 85 | 274 | 17.4 | 27.8 | 0.00 | 0.00 | 0.00 | 27 | 1006.6 |
| 20260905054211 | 85 | 277 | 24.3 | 32.2 | 0.00 | 0.00 | 0.00 | 27 | 1006.4 |
| 20260905053711 | 85 | 275 | 30.4 | 42.6 | 0.00 | 0.00 | 0.00 | 26 | 1006.2 |
| 20260905053211 | 85 | 280 | 22.6 | 37.4 | 0.00 | 0.00 | 0.00 | 26 | 1005.7 |
| 20260905052211 | 85 | 270 | 29.5 | 41.7 | 0.00 | 0.00 | 0.00 | 26 | 1005.6 |
| 20260905051711 | 85 | 271 | 28.7 | 41.7 | 0.00 | 0.00 | 0.00 | 26 | 1005.4 |
| 20260905051211 | 85 | 278 | 25.2 | 40.0 | 0.00 | 0.00 | 0.00 | 25 | 1005.6 |
| 20260905050711 | 85 | 271 | 25.2 | 41.7 | 0.00 | 0.00 | 0.00 | 25 | 1005.5 |
| 20260905050211 | 86 | 263 | 30.4 | 40.8 | 0.00 | 0.00 | 0.00 | 25 | 1005.3 |
| 20260905045711 | 86 | 275 | 22.6 | 40.0 | 0.00 | 0.00 | 0.00 | 24 | 1005.4 |
| 20260905045211 | 86 | 274 | 26.1 | 35.6 | 0.00 | 0.00 | 0.00 | 24 | 1005.4 |
| 20260905044711 | 86 | 269 | 20.0 | 33.9 | 0.00 | 0.00 | 0.00 | 24 | 1005.3 |
| 20260905044212 | 87 | 261 | 18.2 | 27.8 | 0.00 | 0.00 | 0.00 | 24 | 1005.2 |
| 20260905043711 | 87 | 270 | 20.0 | 39.1 | 0.00 | 0.00 | 0.00 | 22 | 1005.2 |
| 20260905042711 | 86 | 275 | 12.2 | 18.2 | 0.00 | 0.00 | 0.00 | 27 | 1005.5 |
| 20260905042211 | 86 | 301 | 14.8 | 19.1 | 0.00 | 0.00 | 0.00 | 26 | 1005.2 |
| 20260905041711 | 86 | 318 | 13.9 | 22.6 | 0.00 | 0.00 | 0.00 | 27 | 1005.1 |
| 20260905041211 | 86 | 328 | 15.6 | 22.6 | 0.00 | 0.00 | 0.00 | 27 | 1005.0 |
| 20260905040211 | 85 | 335 | 14.8 | 20.9 | 0.00 | 0.00 | 0.00 | 27 | 1005.3 |
| 20260905035711 | 85 | 329 | 13.9 | 21.7 | 0.00 | 0.00 | 0.00 | 28 | 1005.2 |
| 20260905035210 | 84 | 340 | 13.0 | 20.9 | 0.00 | 0.00 | 0.00 | 27 | 1005.5 |
| 20260905034711 | 84 | 338 | 17.4 | 26.1 | 0.00 | 0.00 | 0.00 | 27 | 1005.4 |
| 20260905034211 | 84 | 346 | 13.9 | 25.2 | 0.00 | 0.00 | 0.00 | 27 | 1005.6 |
| 20260905033711 | 84 | 334 | 11.3 | 22.6 | 0.00 | 0.00 | 0.00 | 28 | 1005.7 |
| 20260905033210 | 83 | 343 | 12.2 | 21.7 | 0.00 | 0.00 | 0.00 | 28 | 1005.8 |
| 20260905032211 | 83 | 354 | 16.5 | 25.2 | 0.00 | 0.00 | 0.00 | 28 | 1006.2 |
| 20260905031710 | 83 | 345 | 20.0 | 34.8 | 0.00 | 0.00 | 0.00 | 28 | 1006.4 |
| 20260905031211 | 82 | 347 | 16.5 | 34.8 | 0.00 | 0.00 | 0.00 | 29 | 1006.5 |
| 20260905030211 | 82 | 337 | 20.9 | 27.8 | 0.00 | 0.00 | 0.00 | 28 | 1006.9 |
| 20260905024711 | 81 | 339 | 10.4 | 17.4 | 0.00 | 0.00 | 0.00 | 32 | 1007.2 |
| 20260905024211 | 81 | 0 | 13.9 | 22.6 | 0.00 | 0.00 | 0.00 | 31 | 1007.5 |
| 20260905023710 | 81 | 341 | 14.8 | 26.9 | 0.00 | 0.00 | 0.00 | 30 | 1007.7 |
| 20260905023211 | 81 | 348 | 10.4 | 24.3 | 0.00 | 0.00 | 0.00 | 31 | 1008.0 |
| 20260905022711 | 81 | 335 | 10.4 | 14.8 | 0.00 | 0.00 | 0.00 | 32 | 1008.2 |
| 20260905022211 | 81 | 345 | 13.9 | 20.0 | 0.00 | 0.00 | 0.00 | 31 | 1008.3 |
| 20260905021711 | 81 | 341 | 14.8 | 21.7 | 0.00 | 0.00 | 0.00 | 30 | 1008.7 |
| 20260905021211 | 81 | 345 | 15.6 | 26.9 | 0.00 | 0.00 | 0.00 | 30 | 1008.8 |
| 20260905020711 | 81 | 351 | 13.9 | 19.1 | 0.00 | 0.00 | 0.00 | 32 | 1009.0 |
| 20260905020210 | 81 | 345 | 14.8 | 26.1 | 0.00 | 0.00 | 0.00 | 30 | 1009.1 |
| 20260905015711 | 81 | 344 | 12.2 | 19.1 | 0.00 | 0.00 | 0.00 | 30 | 1009.4 |
| 20260905015211 | 80 | 1 | 11.3 | 17.4 | 0.00 | 0.00 | 0.00 | 30 | 1009.5 |
| 20260905014711 | 80 | 356 | 13.9 | 18.2 | 0.00 | 0.00 | 0.00 | 30 | 1009.7 |
| 20260905014211 | 80 | 346 | 12.2 | 17.4 | 0.00 | 0.00 | 0.00 | 31 | 1009.8 |
| 20260905013711 | 80 | 353 | 10.4 | 14.8 | 0.00 | 0.00 | 0.00 | 31 | 1010.0 |
| 20260905013211 | 80 | 353 | 11.3 | 17.4 | 0.00 | 0.00 | 0.00 | 31 | 1010.1 |
| 20260905012711 | 80 | 347 | 7.8 | 13.9 | 0.00 | 0.00 | 0.00 | 31 | 1010.4 |
| 20260905012210 | 79 | 349 | 7.8 | 14.8 | 0.00 | 0.00 | 0.00 | 32 | 1010.6 |
| 20260905011710 | 79 | 342 | 8.7 | 14.8 | 0.00 | 0.00 | 0.00 | 32 | 1010.5 |
| 20260905011210 | 78 | 337 | 7.0 | 14.8 | 0.00 | 0.00 | 0.00 | 33 | 1010.9 |
| 20260905010711 | 78 | 330 | 8.7 | 12.2 | 0.00 | 0.00 | 0.00 | 33 | 1011.0 |
| 20260905010211 | 78 | 345 | 7.8 | 11.3 | 0.00 | 0.00 | 0.00 | 33 | 1011.4 |
| 20260905005711 | 77 | 347 | 5.2 | 10.4 | 0.00 | 0.00 | 0.00 | 33 | 1011.4 |
| 20260905005210 | 77 | 329 | 5.2 | 12.2 | 0.00 | 0.00 | 0.00 | 33 | 1011.5 |
| 20260905004711 | 76 | 343 | 6.1 | 13.0 | 0.00 | 0.00 | 0.00 | 33 | 1011.7 |
| 20260905004211 | 76 | 328 | 11.3 | 13.9 | 0.00 | 0.00 | 0.00 | 33 | 1012.0 |
| 20260905003710 | 76 | 340 | 10.4 | 15.6 | 0.00 | 0.00 | 0.00 | 34 | 1012.0 |
| 20260905002711 | 75 | 335 | 10.4 | 13.0 | 0.00 | 0.00 | 0.00 | 35 | 1012.4 |
| 20260905002211 | 75 | 341 | 10.4 | 13.9 | 0.00 | 0.00 | 0.00 | 34 | 1012.6 |
| 20260905001210 | 74 | 347 | 11.3 | 14.8 | 0.00 | 0.00 | 0.00 | 35 | 1012.8 |
| 20260905000211 | 73 | 349 | 10.4 | 14.8 | 0.00 | 0.00 | 0.00 | 37 | 1013.4 |
| 20260904235711 | 72 | 334 | 7.0 | 10.4 | 0.00 | 0.00 | 0.00 | 41 | 1013.4 |
| 20260904235210 | 72 | 354 | 3.5 | 8.7 | 0.00 | 0.00 | 0.00 | 42 | 1013.3 |
| 20260904234710 | 71 | 348 | 7.0 | 10.4 | 0.00 | 0.00 | 0.00 | 41 | 1013.3 |
| 20260904234211 | 71 | 345 | 7.0 | 10.4 | 0.00 | 0.00 | 0.00 | 42 | 1013.7 |
| 20260904233711 | 71 | 337 | 6.1 | 8.7 | 0.00 | 0.00 | 0.00 | 42 | 1014.0 |
| 20260904232710 | 71 | 323 | 7.8 | 10.4 | 0.00 | 0.00 | 0.00 | 43 | 1014.1 |
| 20260904232210 | 70 | 322 | 4.3 | 10.4 | 0.00 | 0.00 | 0.00 | 44 | 1014.0 |
| 20260904231711 | 70 | 337 | 6.1 | 10.4 | 0.00 | 0.00 | 0.00 | 44 | 1014.2 |
| 20260904231211 | 69 | 320 | 7.8 | 10.4 | 0.00 | 0.00 | 0.00 | 45 | 1014.2 |
| 20260904230710 | 68 | 325 | 6.1 | 10.4 | 0.00 | 0.00 | 0.00 | 47 | 1014.4 |
| 20260904230210 | 68 | 335 | 5.2 | 10.4 | 0.00 | 0.00 | 0.00 | 48 | 1014.5 |
| 20260904225211 | 66 | 321 | 6.1 | 10.4 | 0.00 | 0.00 | 0.00 | 51 | 1014.7 |
| 20260904224210 | 65 | 325 | 8.7 | 12.2 | 0.00 | 0.00 | 0.00 | 52 | 1015.0 |
| 20260904223710 | 65 | 316 | 8.7 | 11.3 | 0.00 | 0.00 | 0.00 | 53 | 1015.1 |
| 20260904223210 | 64 | 311 | 9.6 | 11.3 | 0.00 | 0.00 | 0.00 | 53 | 1015.2 |
| 20260904222711 | 64 | 326 | 8.7 | 11.3 | 0.00 | 0.00 | 0.00 | 54 | 1015.2 |
| 20260904221711 | 64 | 328 | 7.8 | 11.3 | 0.00 | 0.00 | 0.00 | 55 | 1015.2 |
| 20260904221210 | 63 | 313 | 7.8 | 10.4 | 0.00 | 0.00 | 0.00 | 55 | 1015.0 |
| 20260904220710 | 63 | 323 | 8.7 | 12.2 | 0.00 | 0.00 | 0.00 | 56 | 1015.1 |
| 20260904220210 | 63 | 320 | 8.7 | 12.2 | 0.00 | 0.00 | 0.00 | 57 | 1015.1 |
| 20260904215710 | 62 | 329 | 10.4 | 13.0 | 0.00 | 0.00 | 0.00 | 57 | 1015.0 |
| 20260904215211 | 62 | 315 | 8.7 | 12.2 | 0.00 | 0.00 | 0.00 | 57 | 1015.3 |
| 20260904214710 | 62 | 315 | 9.6 | 12.2 | 0.00 | 0.00 | 0.00 | 57 | 1015.4 |
| 20260904213210 | 62 | 324 | 11.3 | 13.9 | 0.00 | 0.00 | 0.00 | 58 | 1015.4 |
| 20260904212711 | 62 | 322 | 12.2 | 13.9 | 0.00 | 0.00 | 0.00 | 58 | 1015.4 |
| 20260904212210 | 61 | 321 | 11.3 | 13.9 | 0.00 | 0.00 | 0.00 | 59 | 1015.3 |
| 20260904211710 | 61 | 320 | 11.3 | 13.0 | 0.00 | 0.00 | 0.00 | 59 | 1015.4 |
| 20260904211210 | 61 | 320 | 8.7 | 12.2 | 0.00 | 0.00 | 0.00 | 60 | 1015.2 |
| 20260904210711 | 60 | 321 | 10.4 | 12.2 | 0.00 | 0.00 | 0.00 | 60 | 1015.4 |
| 20260904210210 | 60 | 317 | 12.2 | 13.9 | 0.00 | 0.00 | 0.00 | 60 | 1015.4 |
| 20260904205710 | 60 | 310 | 11.3 | 13.9 | 0.00 | 0.00 | 0.00 | 61 | 1015.6 |
| 20260904205211 | 60 | 312 | 12.2 | 14.8 | 0.00 | 0.00 | 0.00 | 61 | 1015.4 |
| 20260904204710 | 60 | 315 | 13.9 | 15.6 | 0.00 | 0.00 | 0.00 | 61 | 1015.5 |
| 20260904204210 | 60 | 314 | 14.8 | 17.4 | 0.00 | 0.00 | 0.00 | 60 | 1015.4 |
| 20260904203710 | 60 | 309 | 14.8 | 17.4 | 0.00 | 0.00 | 0.00 | 60 | 1015.4 |
| 20260904203210 | 60 | 310 | 13.9 | 17.4 | 0.00 | 0.00 | 0.00 | 60 | 1015.7 |
| 20260904202210 | 60 | 307 | 14.8 | 17.4 | 0.00 | 0.00 | 0.00 | 59 | 1015.5 |
| 20260904201710 | 61 | 317 | 13.9 | 17.4 | 0.00 | 0.00 | 0.00 | 60 | 1015.5 |
| 20260904201210 | 61 | 307 | 13.0 | 14.8 | 0.00 | 0.00 | 0.00 | 59 | 1015.4 |
| 20260904200210 | 60 | 303 | 12.2 | 13.9 | 0.00 | 0.00 | 0.00 | 60 | 1015.5 |
| 20260904195710 | 60 | 304 | 12.2 | 14.8 | 0.00 | 0.00 | 0.00 | 61 | 1015.4 |
| 20260904195210 | 60 | 299 | 11.3 | 13.0 | 0.00 | 0.00 | 0.00 | 62 | 1015.6 |
| 20260904194210 | 60 | 301 | 8.7 | 11.3 | 0.00 | 0.00 | 0.00 | 62 | 1015.4 |
| 20260904193710 | 60 | 304 | 8.7 | 10.4 | 0.00 | 0.00 | 0.00 | 62 | 1015.4 |
| 20260904193209 | 60 | 294 | 7.8 | 10.4 | 0.00 | 0.00 | 0.00 | 62 | 1015.6 |
| 20260904191710 | 60 | 294 | 7.8 | 10.4 | 0.00 | 0.00 | 0.00 | 63 | 1015.6 |
| 20260904190710 | 60 | 305 | 6.1 | 8.7 | 0.00 | 0.00 | 0.00 | 64 | 1015.5 |
| 20260904190210 | 60 | 300 | 6.1 | 7.8 | 0.00 | 0.00 | 0.00 | 64 | 1015.6 |
| 20260904185710 | 60 | 306 | 6.1 | 7.8 | 0.00 | 0.00 | 0.00 | 64 | 1015.7 |
| 20260904185210 | 60 | 303 | 6.1 | 7.0 | 0.00 | 0.00 | 0.00 | 64 | 1015.7 |
| 20260904184710 | 60 | 309 | 5.2 | 7.0 | 0.00 | 0.00 | 0.00 | 64 | 1015.8 |
| 20260904184210 | 60 | 324 | 6.1 | 7.0 | 0.00 | 0.00 | 0.00 | 64 | 1015.7 |
| 20260904183210 | 60 | 326 | 7.0 | 7.8 | 0.00 | 0.00 | 0.00 | 63 | 1015.9 |
| 20260904182710 | 61 | 315 | 6.1 | 7.8 | 0.00 | 0.00 | 0.00 | 63 | 1015.9 |
| 20260904182210 | 61 | 333 | 5.2 | 8.7 | 0.00 | 0.00 | 0.00 | 62 | 1015.8 |
| 20260904181210 | 61 | 317 | 7.0 | 8.7 | 0.00 | 0.00 | 0.00 | 61 | 1015.7 |
| 20260904180710 | 61 | 314 | 7.0 | 7.8 | 0.00 | 0.00 | 0.00 | 61 | 1015.9 |
| 20260904180210 | 61 | 314 | 6.1 | 7.8 | 0.00 | 0.00 | 0.00 | 62 | 1015.9 |
| 20260904175710 | 61 | 302 | 5.2 | 6.1 | 0.00 | 0.00 | 0.00 | 62 | 1015.6 |
| 20260904175210 | 61 | 314 | 5.2 | 6.1 | 0.00 | 0.00 | 0.00 | 63 | 1015.6 |
| 20260904174710 | 61 | 310 | 4.3 | 6.1 | 0.00 | 0.00 | 0.00 | 64 | 1015.6 |
| 20260904174210 | 60 | 320 | 4.3 | 6.1 | 0.00 | 0.00 | 0.00 | 65 | 1015.7 |
| 20260904173710 | 60 | 336 | 2.6 | 6.1 | 0.00 | 0.00 | 0.00 | 67 | 1015.7 |
| 20260904173210 | 60 | 54 | 2.6 | 4.3 | 0.00 | 0.00 | 0.00 | 68 | 1015.6 |
| 20260904172210 | 60 | 308 | 1.7 | 5.2 | 0.00 | 0.00 | 0.00 | 64 | 1015.7 |
| 20260904171210 | 60 | 301 | 4.3 | 6.1 | 0.00 | 0.00 | 0.00 | 65 | 1015.7 |
| 20260904170710 | 60 | 313 | 5.2 | 7.0 | 0.00 | 0.00 | 0.00 | 65 | 1015.8 |
| 20260904170210 | 60 | 312 | 6.1 | 10.4 | 0.00 | 0.00 | 0.00 | 65 | 1015.9 |
| 20260904165710 | 60 | 314 | 5.2 | 10.4 | 0.00 | 0.00 | 0.00 | 66 | 1016.1 |
| 20260904165210 | 60 | 332 | 5.2 | 8.7 | 0.00 | 0.00 | 0.00 | 66 | 1016.1 |
| 20260904164210 | 60 | 329 | 6.1 | 8.7 | 0.00 | 0.00 | 0.00 | 65 | 1016.2 |
| 20260904163710 | 60 | 328 | 5.2 | 7.0 | 0.00 | 0.00 | 0.00 | 65 | 1016.3 |
| 20260904163210 | 60 | 321 | 5.2 | 7.8 | 0.00 | 0.00 | 0.00 | 66 | 1016.3 |
| 20260904162710 | 60 | 319 | 2.6 | 5.2 | 0.00 | 0.00 | 0.00 | 67 | 1016.4 |
| 20260904161709 | 60 | 307 | 0.0 | 2.6 | 0.00 | 0.00 | 0.00 | 67 | 1016.5 |
| 20260904161209 | 60 | 283 | 3.5 | 7.0 | 0.00 | 0.00 | 0.00 | 67 | 1016.8 |
| 20260904160709 | 60 | 296 | 5.2 | 10.4 | 0.00 | 0.00 | 0.00 | 67 | 1016.8 |
| 20260904160210 | 60 | 304 | 7.8 | 10.4 | 0.00 | 0.00 | 0.00 | 67 | 1017.0 |
| 20260904155710 | 60 | 321 | 8.7 | 11.3 | 0.00 | 0.00 | 0.00 | 67 | 1016.8 |
| 20260904155209 | 61 | 310 | 8.7 | 11.3 | 0.00 | 0.00 | 0.00 | 67 | 1017.1 |
| 20260904154709 | 61 | 304 | 8.7 | 10.4 | 0.00 | 0.00 | 0.00 | 68 | 1017.2 |
| 20260904154210 | 61 | 302 | 9.6 | 10.4 | 0.00 | 0.00 | 0.00 | 68 | 1017.2 |
| 20260904153710 | 60 | 306 | 8.7 | 10.4 | 0.00 | 0.00 | 0.00 | 69 | 1017.1 |
| 20260904153210 | 60 | 306 | 8.7 | 10.4 | 0.00 | 0.00 | 0.00 | 69 | 1017.3 |
| 20260904152710 | 60 | 309 | 8.7 | 11.3 | 0.00 | 0.00 | 0.00 | 70 | 1017.4 |
| 20260904152210 | 60 | 309 | 8.7 | 11.3 | 0.00 | 0.00 | 0.00 | 71 | 1017.5 |
| 20260904151710 | 60 | 294 | 8.7 | 11.3 | 0.00 | 0.00 | 0.00 | 72 | 1017.6 |
| 20260904150710 | 60 | 312 | 8.7 | 10.4 | 0.00 | 0.00 | 0.00 | 72 | 1017.5 |
| 20260904145210 | 60 | 310 | 10.4 | 12.2 | 0.00 | 0.00 | 0.00 | 72 | 1017.9 |
| 20260904144709 | 61 | 304 | 8.7 | 11.3 | 0.00 | 0.00 | 0.00 | 72 | 1017.9 |
| 20260904144209 | 61 | 306 | 9.6 | 11.3 | 0.00 | 0.00 | 0.00 | 72 | 1017.8 |
| 20260904143210 | 61 | 304 | 7.0 | 8.7 | 0.00 | 0.00 | 0.00 | 72 | 1017.7 |
| 20260904142709 | 61 | 305 | 7.0 | 10.4 | 0.00 | 0.00 | 0.00 | 72 | 1018.0 |
| 20260904142209 | 61 | 312 | 7.8 | 8.7 | 0.00 | 0.00 | 0.00 | 72 | 1018.0 |
| 20260904141709 | 61 | 310 | 7.8 | 8.7 | 0.00 | 0.00 | 0.00 | 72 | 1017.9 |
| 20260904141209 | 61 | 316 | 7.8 | 8.7 | 0.00 | 0.00 | 0.00 | 72 | 1018.2 |
| 20260904140709 | 61 | 325 | 7.0 | 7.8 | 0.00 | 0.00 | 0.00 | 71 | 1017.9 |
| 20260904140210 | 62 | 318 | 6.1 | 7.0 | 0.00 | 0.00 | 0.00 | 71 | 1018.0 |
| 20260904135710 | 62 | 322 | 6.1 | 7.0 | 0.00 | 0.00 | 0.00 | 71 | 1017.8 |
| 20260904134709 | 62 | 329 | 6.1 | 7.0 | 0.00 | 0.00 | 0.00 | 71 | 1018.1 |
| 20260904134209 | 62 | 337 | 6.1 | 7.0 | 0.00 | 0.00 | 0.00 | 71 | 1018.0 |
| 20260904133709 | 63 | 337 | 6.1 | 6.1 | 0.00 | 0.00 | 0.00 | 71 | 1018.2 |
| 20260904133209 | 63 | 337 | 6.1 | 6.1 | 0.00 | 0.00 | 0.00 | 70 | 1018.2 |
| 20260904132710 | 63 | 337 | 5.2 | 6.1 | 0.00 | 0.00 | 0.00 | 70 | 1018.3 |
| 20260904131709 | 63 | 355 | 5.2 | 7.0 | 0.00 | 0.00 | 0.00 | 70 | 1018.3 |
| 20260904131209 | 63 | 348 | 4.3 | 6.1 | 0.00 | 0.00 | 0.00 | 70 | 1018.7 |
| 20260904130709 | 63 | 359 | 5.2 | 6.1 | 0.00 | 0.00 | 0.00 | 70 | 1018.6 |
| 20260904125709 | 63 | 348 | 4.3 | 5.2 | 0.00 | 0.00 | 0.00 | 71 | 1018.6 |
| 20260904125209 | 62 | 0 | 4.3 | 6.1 | 0.00 | 0.00 | 0.00 | 71 | 1018.7 |
| 20260904124709 | 62 | 354 | 3.5 | 5.2 | 0.00 | 0.00 | 0.00 | 71 | 1018.8 |
| 20260904124210 | 62 | 16 | 2.6 | 4.3 | 0.00 | 0.00 | 0.00 | 71 | 1018.7 |
| 20260904123709 | 62 | 17 | 2.6 | 4.3 | 0.00 | 0.00 | 0.00 | 71 | 1018.8 |
| 20260904123209 | 63 | 359 | 0.0 | 0.0 | 0.00 | 0.00 | 0.00 | 71 | 1019.2 |
| 20260904121709 | 63 | 359 | 1.7 | 2.6 | 0.00 | 0.00 | 0.00 | 70 | 1019.2 |
| 20260904121210 | 63 | 359 | 1.7 | 2.6 | 0.00 | 0.00 | 0.00 | 70 | 1019.4 |
| 20260904120709 | 63 | 359 | 1.7 | 4.3 | 0.00 | 0.00 | 0.00 | 70 | 1019.4 |
| 20260904120209 | 63 | 8 | 2.6 | 4.3 | 0.00 | 0.00 | 0.00 | 70 | 1019.2 |
| 20260904115209 | 63 | 25 | 4.3 | 5.2 | 0.00 | 0.00 | 0.00 | 69 | 1019.2 |
| 20260904114709 | 63 | 35 | 2.6 | 4.3 | 0.00 | 0.00 | 0.00 | 69 | 1019.4 |
| 20260904114209 | 63 | 345 | 1.7 | 2.6 | 0.00 | 0.00 | 0.00 | 68 | 1019.2 |
| 20260904113709 | 63 | 345 | 1.7 | 2.6 | 0.00 | 0.00 | 0.00 | 68 | 1019.5 |
| 20260904113209 | 63 | 345 | 0.9 | 2.6 | 0.00 | 0.00 | 0.00 | 68 | 1019.4 |
| 20260904112709 | 63 | 327 | 2.6 | 7.0 | 0.00 | 0.00 | 0.00 | 68 | 1019.4 |
| 20260904112208 | 63 | 358 | 5.2 | 7.8 | 0.00 | 0.00 | 0.00 | 67 | 1019.5 |
| 20260904111709 | 63 | 1 | 5.2 | 7.0 | 0.00 | 0.00 | 0.00 | 66 | 1019.2 |
| 20260904111209 | 63 | 1 | 5.2 | 7.8 | 0.00 | 0.00 | 0.00 | 66 | 1019.3 |
| 20260904110709 | 63 | 5 | 4.3 | 5.2 | 0.00 | 0.00 | 0.00 | 66 | 1019.2 |
| 20260904110209 | 63 | 4 | 2.6 | 4.3 | 0.00 | 0.00 | 0.00 | 66 | 1019.3 |
| 20260904105709 | 63 | 20 | 2.6 | 4.3 | 0.00 | 0.00 | 0.00 | 66 | 1019.1 |
| 20260904105210 | 63 | 13 | 2.6 | 4.3 | 0.00 | 0.00 | 0.00 | 66 | 1019.2 |
| 20260904104709 | 63 | 31 | 2.6 | 5.2 | 0.00 | 0.00 | 0.00 | 66 | 1019.1 |
| 20260904104209 | 64 | 27 | 2.6 | 2.6 | 0.00 | 0.00 | 0.00 | 66 | 1019.2 |
| 20260904103709 | 64 | 22 | 0.0 | 0.0 | 0.00 | 0.00 | 0.00 | 65 | 1019.1 |
| 20260904103209 | 64 | 145 | 0.0 | 0.0 | 0.00 | 0.00 | 0.00 | 65 | 1018.9 |
| 20260904102209 | 64 | 191 | 0.0 | 0.0 | 0.00 | 0.00 | 0.00 | 65 | 1019.0 |
| 20260904101709 | 64 | 191 | 0.0 | 0.9 | 0.00 | 0.00 | 0.00 | 65 | 1019.3 |
| 20260904101209 | 64 | 191 | 0.0 | 1.7 | 0.00 | 0.00 | 0.00 | 65 | 1018.8 |
| 20260904100709 | 64 | 185 | 0.0 | 2.6 | 0.00 | 0.00 | 0.00 | 65 | 1018.9 |
| 20260904100209 | 64 | 185 | 0.9 | 2.6 | 0.00 | 0.00 | 0.00 | 65 | 1019.0 |
| 20260904095709 | 64 | 190 | 0.9 | 2.6 | 0.00 | 0.00 | 0.00 | 65 | 1018.8 |
| 20260904095209 | 64 | 211 | 1.7 | 2.6 | 0.00 | 0.00 | 0.00 | 65 | 1018.7 |
| 20260904094709 | 64 | 173 | 3.5 | 7.8 | 0.00 | 0.00 | 0.00 | 65 | 1018.7 |
| 20260904094209 | 64 | 191 | 4.3 | 7.0 | 0.00 | 0.00 | 0.00 | 65 | 1018.8 |
| 20260904093709 | 64 | 257 | 0.9 | 2.6 | 0.00 | 0.00 | 0.00 | 65 | 1018.8 |
| 20260904093209 | 64 | 342 | 0.0 | 0.0 | 0.00 | 0.00 | 0.00 | 65 | 1018.7 |
| 20260904092708 | 64 | 342 | 0.0 | 0.0 | 0.00 | 0.00 | 0.00 | 65 | 1018.5 |
| 20260904091709 | 64 | 342 | 0.0 | 1.7 | 0.00 | 0.00 | 0.00 | 65 | 1018.3 |
| 20260904091209 | 64 | 342 | 1.7 | 2.6 | 0.00 | 0.00 | 0.00 | 65 | 1018.4 |
| 20260904090708 | 64 | 342 | 2.6 | 2.6 | 0.00 | 0.00 | 0.00 | 65 | 1018.1 |
| 20260904090208 | 64 | 353 | 1.7 | 5.2 | 0.00 | 0.00 | 0.00 | 64 | 1018.1 |
| 20260904085709 | 64 | 357 | 2.6 | 7.8 | 0.00 | 0.00 | 0.00 | 64 | 1017.9 |
| 20260904085209 | 64 | 358 | 4.3 | 7.8 | 0.00 | 0.00 | 0.00 | 64 | 1017.9 |
| 20260904084708 | 64 | 350 | 5.2 | 8.7 | 0.00 | 0.00 | 0.00 | 64 | 1017.8 |
| 20260904084208 | 64 | 2 | 4.3 | 7.8 | 0.00 | 0.00 | 0.00 | 64 | 1017.6 |
| 20260904083708 | 64 | 338 | 4.3 | 7.8 | 0.00 | 0.00 | 0.00 | 64 | 1017.6 |
| 20260904083209 | 64 | 346 | 5.2 | 8.7 | 0.00 | 0.00 | 0.00 | 63 | 1017.5 |
| 20260904082709 | 64 | 342 | 4.3 | 7.0 | 0.00 | 0.00 | 0.00 | 62 | 1017.6 |
| 20260904082209 | 64 | 5 | 4.3 | 8.7 | 0.00 | 0.00 | 0.00 | 61 | 1017.5 |
| 20260904081709 | 64 | 2 | 2.6 | 8.7 | 0.00 | 0.00 | 0.00 | 61 | 1017.7 |
| 20260904081209 | 64 | 351 | 4.3 | 8.7 | 0.00 | 0.00 | 0.00 | 61 | 1017.2 |
| 20260904080709 | 64 | 6 | 4.3 | 10.4 | 0.00 | 0.00 | 0.00 | 62 | 1017.1 |
| 20260904080209 | 64 | 1 | 5.2 | 8.7 | 0.00 | 0.00 | 0.00 | 63 | 1017.2 |
| 20260904075708 | 64 | 357 | 6.1 | 10.4 | 0.00 | 0.00 | 0.00 | 64 | 1017.3 |
| 20260904075209 | 64 | 13 | 4.3 | 7.8 | 0.00 | 0.00 | 0.00 | 65 | 1017.1 |
| 20260904074209 | 64 | 30 | 3.5 | 7.0 | 0.00 | 0.00 | 0.00 | 63 | 1017.1 |
| 20260904073709 | 64 | 48 | 3.5 | 6.1 | 0.00 | 0.00 | 0.00 | 63 | 1017.0 |
| 20260904073208 | 64 | 15 | 5.2 | 8.7 | 0.00 | 0.00 | 0.00 | 63 | 1017.0 |
| 20260904072708 | 64 | 9 | 5.2 | 7.8 | 0.00 | 0.00 | 0.00 | 63 | 1016.9 |
| 20260904072209 | 64 | 5 | 5.2 | 10.4 | 0.00 | 0.00 | 0.00 | 65 | 1016.9 |
| 20260904071708 | 64 | 28 | 5.2 | 7.8 | 0.00 | 0.00 | 0.00 | 66 | 1016.7 |
| 20260904071209 | 64 | 36 | 7.0 | 8.7 | 0.00 | 0.00 | 0.00 | 67 | 1016.7 |
| 20260904070709 | 64 | 35 | 7.8 | 10.4 | 0.00 | 0.00 | 0.00 | 66 | 1016.6 |
| 20260904065708 | 64 | 34 | 7.8 | 12.2 | 0.00 | 0.00 | 0.00 | 65 | 1016.7 |
| 20260904065209 | 64 | 39 | 11.3 | 13.9 | 0.00 | 0.00 | 0.00 | 64 | 1016.7 |